CW2920 Weather Reports


Display with metric or nautical units.
time (UTC)temp
F
wind
direction
speed
MPH
gust
MPH
rain 1hr
in
rain 24hr
in
rain mn
in
humidity
%
barometer
mb
20260510173047 67 257 0.0 1.0 0.00 0.00 0.00 52 1013.9
20260510171546 66 255 0.0 0.0 0.00 0.00 0.00 53 1013.6
20260510170024 65 254 0.0 0.0 0.00 0.00 0.00 56 1013.4
20260510164523 65 255 0.0 0.0 0.00 0.00 0.00 58 1013.6
20260510163104 63 256 0.0 0.0 0.00 0.00 0.00 58 1013.9
20260510161559 63 256 0.0 1.0 0.00 0.00 0.00 61 1013.9
20260510160045 62 260 0.0 0.0 0.00 0.00 0.00 58 1014.1
20260510154542 62 299 0.0 0.0 0.00 0.00 0.00 60 1013.9
20260510153042 61 299 0.0 1.0 0.00 0.00 0.00 60 1014.2
20260510151537 59 339 0.0 0.0 0.00 0.00 0.00 65 1014.2
20260510150032 58 339 0.0 0.0 0.00 0.00 0.00 69 1014.3
20260510144529 57 339 0.0 0.0 0.00 0.00 0.00 74 1014.2
20260510143023 54 339 0.0 0.0 0.00 0.00 0.00 75 1014.1
20260510141519 50 339 0.0 0.0 0.00 0.00 0.00 80 1014.0
20260510140057 48 339 0.0 0.0 0.00 0.00 0.00 82 1014.0
20260510134603 47 339 0.0 0.0 0.00 0.00 0.00 81 1013.5
20260510133034 45 339 0.0 0.0 0.00 0.00 0.00 82 1013.7
20260510131531 43 339 0.0 0.0 0.00 0.00 0.00 82 1013.4
20260510130010 43 339 0.0 0.0 0.00 0.00 0.00 81 1013.4
20260510124508 43 339 0.0 0.0 0.00 0.00 0.00 80 1013.5
20260510123056 44 339 0.0 0.0 0.00 0.00 0.00 78 1013.6
20260510121555 46 339 0.0 0.0 0.00 0.00 0.00 75 1013.5
20260510120054 46 339 0.0 0.0 0.00 0.00 0.00 77 1013.5
20260510114556 46 339 0.0 0.0 0.00 0.00 0.00 77 1013.6
20260510113052 46 339 0.0 0.0 0.00 0.00 0.00 78 1013.6
20260510111551 44 339 0.0 0.0 0.00 0.00 0.00 80 1013.7
20260510110049 43 339 0.0 0.0 0.00 0.00 0.00 81 1013.8
20260510104548 43 339 0.0 1.0 0.00 0.00 0.00 80 1013.8
20260510103031 43 339 0.0 0.0 0.00 0.00 0.00 79 1013.9
20260510101529 43 339 0.0 0.0 0.00 0.00 0.00 79 1013.9
20260510100011 44 339 0.0 0.0 0.00 0.00 0.00 79 1014.0
20260510094515 43 339 0.0 0.0 0.00 0.00 0.00 79 1014.0
20260510093057 43 339 0.0 0.0 0.00 0.00 0.00 77 1014.1
20260510091555 44 339 0.0 0.0 0.00 0.00 0.00 77 1014.2
20260510090036 45 339 0.0 0.0 0.00 0.00 0.00 74 1014.4
20260510084535 46 339 0.0 0.0 0.00 0.00 0.00 74 1014.3
20260510083014 46 339 0.0 0.0 0.00 0.00 0.00 73 1014.5
20260510081523 46 339 0.0 0.0 0.00 0.00 0.00 73 1014.7
20260510080056 46 339 0.0 0.0 0.00 0.00 0.00 74 1014.6
20260510074554 46 339 0.0 0.0 0.00 0.00 0.00 73 1014.6
20260510073036 47 339 0.0 0.0 0.00 0.00 0.00 71 1014.7
20260510071545 48 339 0.0 0.0 0.00 0.00 0.00 69 1014.8
20260510070034 48 339 0.0 0.0 0.00 0.00 0.00 68 1014.7
20260510064534 49 339 0.0 0.0 0.00 0.00 0.00 67 1014.8
20260510063033 49 339 0.0 0.0 0.00 0.00 0.00 69 1014.8
20260510061544 47 339 0.0 0.0 0.00 0.00 0.00 71 1014.8
20260510060031 49 339 0.0 0.0 0.00 0.00 0.00 69 1015.0
20260510054530 50 339 0.0 0.0 0.00 0.00 0.00 68 1015.0
20260510053028 51 339 0.0 0.0 0.00 0.00 0.00 65 1015.2
20260510051510 52 339 0.0 0.0 0.00 0.00 0.00 64 1015.4
20260510050010 52 339 0.0 0.0 0.00 0.00 0.00 64 1015.3
20260510044552 53 339 0.0 0.0 0.00 0.00 0.00 64 1015.4
20260510043056 53 339 0.0 0.0 0.00 0.00 0.00 62 1015.6
20260510041533 55 339 0.0 0.0 0.00 0.00 0.00 60 1015.7
20260510040035 57 339 0.0 0.0 0.00 0.00 0.00 58 1015.6
20260510034515 59 339 0.0 0.0 0.00 0.00 0.00 54 1015.6
20260510033015 60 339 0.0 0.0 0.00 0.00 0.00 56 1015.5
20260510031559 61 339 0.0 0.0 0.00 0.00 0.00 53 1015.5
20260510030057 63 339 0.0 0.0 0.00 0.00 0.00 52 1015.5
20260510024544 64 339 0.0 0.0 0.00 0.00 0.00 50 1015.4
20260510023038 65 339 0.0 0.0 0.00 0.00 0.00 49 1015.5
20260510021523 67 339 0.0 0.0 0.00 0.00 0.00 51 1015.6
20260510020019 67 339 0.0 0.0 0.00 0.00 0.00 50 1015.7
20260510014559 69 339 0.0 0.0 0.00 0.00 0.00 49 1016.0
20260510013059 70 339 0.0 0.0 0.00 0.00 0.00 48 1016.0
20260510011551 71 339 0.0 0.0 0.00 0.00 0.00 43 1016.1
20260510010039 72 339 0.0 0.0 0.00 0.00 0.00 42 1016.2
20260510004526 72 339 0.0 1.0 0.00 0.00 0.00 42 1016.3
20260510003046 71 339 0.0 1.0 0.00 0.00 0.00 43 1016.3
20260510001501 71 338 0.0 0.0 0.00 0.00 0.00 41 1016.5
20260510000107 72 330 0.0 1.0 0.00 0.00 0.00 40 1016.6
20260509234558 71 343 0.0 0.0 0.00 0.00 0.00 40 1016.6
20260509233042 72 11 0.0 2.0 0.00 0.00 0.00 43 1016.7
20260509231530 71 8 0.0 4.0 0.00 0.00 0.00 42 1016.9
20260509230028 71 342 0.0 9.0 0.00 0.00 0.00 41 1017.1
20260509224501 73 330 0.0 0.0 0.00 0.00 0.00 34 1017.1
20260509223102 72 333 0.0 8.0 0.00 0.00 0.00 37 1017.3
20260509221542 74 285 0.0 0.0 0.00 0.00 0.00 30 1017.4
20260509220039 74 291 0.0 1.0 0.00 0.00 0.00 30 1017.5
20260509214520 74 295 0.0 0.0 0.00 0.00 0.00 31 1017.7
20260509213017 73 297 0.0 0.0 0.00 0.00 0.00 31 1017.8
20260509211603 72 298 0.0 1.0 0.00 0.00 0.00 32 1017.9
20260509210056 71 300 0.0 0.0 0.00 0.00 0.00 35 1018.1
20260509204540 71 283 0.0 0.0 0.00 0.00 0.00 35 1018.3
20260509203038 70 275 0.0 0.0 0.00 0.00 0.00 38 1018.4
20260509201534 69 359 0.0 1.0 0.00 0.00 0.00 41 1018.5
20260509200030 69 256 0.0 0.0 0.00 0.00 0.00 42 1018.7
20260509194533 68 255 0.0 0.0 0.00 0.00 0.00 42 1018.8
20260509193024 67 255 0.0 0.0 0.00 0.00 0.00 44 1019.1
20260509191522 66 246 0.0 0.0 0.00 0.00 0.00 45 1019.2
20260509190019 65 245 0.0 1.0 0.00 0.00 0.00 47 1019.5
20260509184501 65 244 0.0 0.0 0.00 0.00 0.00 48 1019.6
20260509183138 65 243 0.0 0.0 0.00 0.00 0.00 51 1019.7
20260509181600 64 243 0.0 1.0 0.00 0.00 0.00 51 1019.9
20260509180041 63 232 0.0 2.0 0.00 0.00 0.00 50 1020.0
20260509174539 63 228 0.0 5.0 0.00 0.00 0.00 50 1020.0